User: anonymous
Location: Mentone
(34.5413°N, 85.5351°W)
Time: 14:51:08
(UTC-05:00)
Language:

Cosmos 1703 - Orbit

View from above orbital plane
View from above orbital plane
View from above satellite
View from above satellite

Ground track
Ground track

The orbit data is extracted from the following two-line orbital elements,

1 16262U 85108A   14203.13505158  .00000861  00000-0  57366-4 0  4831
2 16262 082.4900 208.7621 0011949 356.4116 003.7023 15.05783729558907
Epoch (UTC): 22 July 2014 03:14:28
Eccentricity: 0.0011949
inclination: 82.4900°
perigee height: 541 km
apogee height: 557 km
right ascension of ascending node: 208.7621°
argument of perigee: 356.4116°
revolutions per day: 15.05783729
mean anomaly at epoch: 3.7023°
orbit number at epoch: 55890

The dashed part of the orbit path shows where the satellite is in the earth's shadow,  

DLR